TimeCST,TemperatureF,Dew PointF,Humidity,Sea Level PressureIn,VisibilityMPH,Wind Direction,Wind SpeedMPH,Gust SpeedMPH,PrecipitationIn,Events,Conditions,WindDirDegrees,DateUTC
6:00 AM,69,67,92,29.87,12,ENE,3.5,,,,Clear,70,2012-11-06 12:00:00
6:00 AM,69.8,68.0,94,29.86,-9999.0,ENE,3.5,-,N/A,,Clear,70,2012-11-06 12:00:00
7:00 AM,77.0,69.8,78,29.88,-9999.0,Calm,Calm,-,N/A,,Clear,0,2012-11-06 13:00:00
8:00 AM,78.8,71.6,78,29.88,-9999.0,South,4.6,-,N/A,,Clear,180,2012-11-06 14:00:00
9:00 AM,85,71,54,29.89,12,SSW,4.6,,,,Clear,200,2012-11-06 15:00:00
9:00 AM,84.2,71.6,66,29.88,-9999.0,SSW,4.6,-,N/A,,Clear,200,2012-11-06 15:00:00
10:00 AM,86.0,69.8,58,29.87,6.2,SSE,6.9,-,N/A,,Scattered Clouds,150,2012-11-06 16:00:00
11:00 AM,87.8,66.2,49,29.85,6.2,ESE,11.5,-,N/A,,Scattered Clouds,120,2012-11-06 17:00:00
12:00 PM,90,64,33,29.83,12,ENE,16.1,,,,Scattered Clouds,70,2012-11-06 18:00:00
12:00 PM,89.6,64.4,43,29.82,6.2,ENE,16.1,-,N/A,,Mostly Cloudy,70,2012-11-06 18:00:00
1:00 PM,91.4,64.4,41,29.81,6.2,East,12.7,-,N/A,,Mostly Cloudy,80,2012-11-06 19:00:00
2:00 PM,87.8,66.2,49,29.79,6.2,East,12.7,-,N/A,,Overcast,80,2012-11-06 20:00:00
3:00 PM,88,65,37,29.80,12,ENE,10.4,,,,Overcast,70,2012-11-06 21:00:00
3:00 PM,87.8,66.2,49,29.79,6.2,ENE,10.4,-,N/A,,Overcast,70,2012-11-06 21:00:00
4:00 PM,86.0,68.0,55,29.79,6.2,ENE,10.4,-,N/A,,Overcast,60,2012-11-06 22:00:00
5:00 PM,86.0,69.8,58,29.81,6.2,East,3.5,-,N/A,,Overcast,80,2012-11-06 23:00:00
6:00 PM,79,71,69,29.83,12,NW,4.6,,,,Overcast,310,2012-11-07 00:00:00
6:00 PM,78.8,69.8,74,29.82,6.2,NW,4.6,-,N/A,,Mostly Cloudy,310,2012-11-07 00:00:00
7:00 PM,77.0,69.8,78,29.84,6.2,South,2.3,-,N/A,,Mostly Cloudy,170,2012-11-07 01:00:00
8:00 PM,75.2,68.0,78,29.86,6.2,South,8.1,-,N/A,,Mostly Cloudy,170,2012-11-07 02:00:00